{"data":{"norad_id":65121,"intl_designator":"2025-170C","name":"GEESAT-4 03","alt_names":[],"object_type":"PAYLOAD","status":"ACTIVE","operator":null,"country":"PRC","launch_date":"2025-08-08","launch_site_code":"YSLA","launch_vehicle":null,"mission":null,"orbit_class":"UNKNOWN","rcs_meters":null,"size_class":null,"mass_kg":null,"dimensions":null,"purposes":[],"wikipedia_slug":null,"has_3d_model":false,"image_url":null,"decayed_at":null,"tle_current":{"epoch":"2026-09-21T20:57:03.963456Z","epoch_age_seconds":46759,"freshness":"FRESH","line1":"1 65121U 25170C   26264.87296254  .00000970  00000+0  14149-3 0  9990","line2":"2 65121  49.9919  85.6265 0020339  73.2324 287.0844 14.84282518 60796","mean_motion":14.84282518,"eccentricity":0.0020339,"inclination_deg":49.9919,"raan_deg":85.6265,"arg_perigee_deg":73.2324,"mean_anomaly_deg":287.0844,"bstar":0.00014149,"rev_number":6079,"period_min":97.016570803538,"perigee_km":601.61377150649,"apogee_km":630.06386634271,"semimajor_km":6993.9758189246,"source":"CELESTRAK","updated_at":"2026-09-22T09:00:30.142212Z"}}}